| time (UTC) | temp C | wind direction | speed KPH | gust KPH | rain 1hr cm | rain 24hr cm | rain mn cm | humidity % | barometer mb |
| 20260506222355 | 16 | 130 | 14.5 | 0.0 | 0.00 | 0.00 | 0.00 | 67 | |
| 20260506212138 | 17 | 120 | 11.3 | 0.0 | 0.00 | 0.00 | 0.00 | 59 | |
| 20260506202155 | 17 | 130 | 14.5 | 0.0 | 0.00 | 0.00 | 0.00 | 55 | |
| 20260506192340 | 18 | 140 | 14.5 | 0.0 | 0.00 | 0.00 | 0.00 | 55 | |
| 20260506182228 | 20 | 140 | 19.3 | 0.0 | 0.00 | 0.00 | 0.00 | 52 | |
| 20260506172153 | 22 | 150 | 29.0 | 0.0 | 0.00 | 0.00 | 0.00 | 40 | |
| 20260506162354 | 23 | 150 | 29.0 | 0.0 | 0.00 | 0.00 | 0.00 | 38 | |
| 20260506152211 | 23 | 130 | 32.2 | 0.0 | 0.00 | 0.00 | 0.00 | 44 | |
| 20260506142139 | 23 | 150 | 22.5 | 0.0 | 0.00 | 0.00 | 0.00 | 41 | |
| 20260506132139 | 22 | 150 | 25.7 | 0.0 | 0.00 | 0.00 | 0.00 | 43 | |
| 20260506122138 | 23 | 180 | 22.5 | 0.0 | 0.00 | 0.00 | 0.00 | 41 | |
| 20260506112125 | 22 | 160 | 22.5 | 0.0 | 0.00 | 0.00 | 0.00 | 43 | |
| 20260506102326 | 22 | 170 | 22.5 | 0.0 | 0.00 | 0.00 | 0.00 | 46 | |
| 20260506092107 | 21 | 170 | 22.5 | 0.0 | 0.00 | 0.00 | 0.00 | 49 | |
| 20260506082123 | 20 | 170 | 22.5 | 0.0 | 0.00 | 0.00 | 0.00 | 56 | |
| 20260506072126 | 17 | 190 | 19.3 | 0.0 | 0.00 | 0.00 | 0.00 | 63 | |
| 20260506062157 | 16 | 140 | 8.0 | 0.0 | 0.00 | 0.00 | 0.00 | 67 | |
| 20260506042338 | 11 | 160 | 3.2 | 0.0 | 0.00 | 0.00 | 0.00 | 81 | |
| 20260506032126 | 11 | 200 | 3.2 | 0.0 | 0.00 | 0.00 | 0.00 | 76 | |
| 20260506022125 | 12 | 120 | 8.0 | 0.0 | 0.00 | 0.00 | 0.00 | 76 | |
| 20260506012226 | 12 | 0 | 0.0 | 0.0 | 0.00 | 0.00 | 0.00 | 76 | |
| 20260506002123 | 12 | 150 | 8.0 | 0.0 | 0.00 | 0.00 | 0.00 | 76 | |
| 20260505232122 | 13 | 90 | 8.0 | 0.0 | 0.00 | 0.00 | 0.00 | 67 |